This is the latest recevied weather packets stored in our database for station/object EA6AMI-5. If no packets are shown the sender has not sent any weather packets the latest 10 day(s).
| Time | Temp. | Humidity | Pressure | Rain* | Wind** | Luminosity | Snow |
|---|---|---|---|---|---|---|---|
| 1787914443 | 30° C | 54% | 1018.4 hPa | 0 mm | - | 425 W/m² | - |
| 1787913903 | 29.44° C | 54% | 1018.5 hPa | 0 mm | - | 309 W/m² | - |
| 1787913363 | 28.89° C | 54% | 1018.6 hPa | 0 mm | - | 435 W/m² | - |
| 1787912823 | 29.44° C | 55% | 1018.2 hPa | 0 mm | - | 323 W/m² | - |
| 1787912284 | 28.89° C | 56% | 1018.1 hPa | 0 mm | - | 388 W/m² | - |
| 1787911743 | 29.44° C | 55% | 1018.3 hPa | 0 mm | - | 236 W/m² | - |
| 1787911204 | 29.44° C | 54% | 1018.2 hPa | 0 mm | - | 241 W/m² | - |
| 1787910843 | 28.89° C | 55% | 1018.2 hPa | 0 mm | - | 198 W/m² | - |
| 1787910303 | 28.89° C | 54% | 1018.2 hPa | 0 mm | - | 222 W/m² | - |
| 1787909763 | 28.89° C | 55% | 1018.3 hPa | 0 mm | - | 177 W/m² | - |
| 1787909223 | 28.89° C | 57% | 1018.2 hPa | 0 mm | - | 185 W/m² | - |
| 1787908683 | 28.33° C | 59% | 1017.8 hPa | 0 mm | - | 165 W/m² | - |
| 1787908143 | 28.33° C | 59% | 1017.8 hPa | 0 mm | - | 160 W/m² | - |
| 1787907603 | 28.33° C | 60% | 1017.8 hPa | 0 mm | - | 179 W/m² | - |
| 1787907243 | 27.78° C | 60% | 1018.1 hPa | 0 mm | - | 215 W/m² | - |
| 1787906703 | 27.78° C | 60% | 1018 hPa | 0 mm | - | 146 W/m² | - |
| 1787906163 | 27.78° C | 58% | 1017.7 hPa | 0 mm | - | 164 W/m² | - |
| 1787905624 | 27.78° C | 58% | 1017 hPa | 0 mm | - | 136 W/m² | - |
| 1787905083 | 27.22° C | 60% | 1016.7 hPa | 0 mm | - | 152 W/m² | - |
| 1787904543 | 27.22° C | 60% | 1017.2 hPa | 0 mm | - | 114 W/m² | - |
| 1787904003 | 26.67° C | 62% | 1017.1 hPa | 0 mm | - | 166 W/m² | - |
| 1787903643 | 26.67° C | 61% | 1017.4 hPa | 0 mm | - | 154 W/m² | - |
| 1787903103 | 26.11° C | 59% | 1016.7 hPa | 0 mm | - | 94 W/m² | - |
| 1787902563 | 25.56° C | 64% | 1017 hPa | 0 mm | - | 76 W/m² | - |
| 1787902023 | 25.56° C | 67% | 1016.7 hPa | 0 mm | - | 61 W/m² | - |
* Rain latest hour (hover to see other rain measurements)
** Current wind speed in m/s (hover to see current wind gust speed)